#timestamp,LO_Frequency,Hit,StdDev 
1645581615.4,286047001.0,N
1645581635.2,286046999.9,N
1645581655.0,286046999.9,N
1645581655.9,286046999.9,N
1645581675.8,286047000.7,N
1645581695.6,286046998.2,N
1645581715.4,286046998.8,N
1645581735.3,286046998.3,N
1645581755.1,286047000.5,N
1645581775.9,286047002.4,N
1645581795.7,286047001.6,N
1645581815.5,286047002.0,N
1645581835.4,286047003.9,Y
1645581855.2,286047003.6,P
1645581875.1,286047003.6,N
1645581876.0,286047003.6,N
1645581895.8,286047003.4,N
1645581915.6,286047004.2,N
1645581935.5,286047002.3,N
1645581955.3,286047000.2,N
1645581975.2,286046999.7,N
1645581995.9,286047000.1,N
1645582015.7,286046999.8,N
1645582035.6,286047002.8,N
1645582055.4,286047000.2,N
1645582075.3,286046998.1,N
1645582095.1,286046996.9,N
1645582096.0,286046996.9,N
1645582115.8,286046996.8,N
1645582135.7,286046999.0,N
1645582155.5,286046999.3,N
1645582175.4,286047001.2,N
1645582195.2,286046998.2,N
1645582215.0,286046999.0,N
1645582215.9,286046999.0,N
1645582235.8,286046996.7,N
1645582255.6,286046997.3,N
1645582275.4,286046999.1,N
1645582295.3,286046998.8,N
1645582315.1,286046998.3,N
1645582335.9,286046999.6,N
1645582355.7,286046999.4,N
1645582375.5,286046999.4,N
1645582395.4,286046999.0,N
1645582415.2,286046998.5,N
1645582435.1,286046998.1,N
1645582436.0,286046998.1,N
1645582455.8,286047000.5,N
1645582475.6,286047001.2,N
1645582495.5,286046998.3,N
1645582515.3,286046998.2,N
1645582535.2,286046998.9,N
1645582555.9,286046998.8,N
1645582575.7,286046998.8,N
1645582595.6,286046998.3,N
1645582615.4,286046998.6,N
1645582635.3,286047002.7,N
1645582655.1,286047000.3,N
1645582656.0,286047000.3,N
1645582675.8,286047000.4,N
1645582695.7,286046999.8,N
1645582715.5,286046999.8,N
1645582735.3,286047002.8,N
1645582755.2,286047000.1,N
1645582775.0,286047000.2,N
1645582775.9,286047000.2,N
1645582795.8,286047001.0,N
1645582815.6,286047000.6,N
1645582835.4,286046999.0,N
1645582855.3,286046999.5,N
1645582875.1,286046996.5,N
1645582895.9,286046996.5,N
1645582915.7,286046996.9,N
1645582935.5,286046997.3,N
1645582955.4,286046997.2,N
1645582975.2,286046997.1,N
1645582995.0,286046996.9,N
1645582995.9,286046996.9,N
1645583015.8,286046997.0,N
1645583035.6,286046999.1,N
1645583055.5,286046999.3,N
1645583075.3,286046998.9,N
1645583095.1,286046998.9,N
1645583115.9,286046998.9,N
1645583135.7,286046998.3,N
1645583155.5,286046998.3,N
1645583175.4,286046998.2,N
1645583195.2,286046998.8,N
1645583215.1,286046998.7,N
1645583216.0,286046998.7,N
1645583235.8,286047001.2,N
1645583255.6,286047000.7,N
1645583275.5,286046998.7,N
1645583295.3,286046998.6,N
1645583315.2,286047001.8,N
1645583335.9,286047002.7,N
1645583355.7,286047000.5,N
1645583375.6,286047001.0,N
1645583395.4,286046998.1,N
1645583415.3,286046998.2,N
1645583435.1,286047000.8,N
1645583436.0,286047000.8,N
1645583455.8,286047000.7,N
1645583475.7,286047001.1,N
1645583495.5,286046998.9,N
1645583515.3,286047000.9,N
1645583535.2,286047000.3,N
1645583555.0,286047001.2,N
1645583555.9,286047001.2,N
1645583575.8,286047000.4,N
1645583595.6,286047000.3,N
1645583615.4,286047000.2,N
1645583635.3,286047002.4,N
1645583655.1,286047002.1,N
1645583675.9,286047001.8,N
1645583695.7,286047000.0,N
1645583715.5,286046998.2,N
1645583735.4,286047000.2,N
1645583755.2,286047001.0,N
1645583775.0,286047000.2,N
1645583775.9,286047000.2,N
1645583795.8,286047002.7,N
1645583815.6,286047002.7,N
1645583835.5,286047000.2,N
1645583855.3,286047002.0,N
1645583875.1,286047002.3,N
1645583895.9,286047001.9,N
1645583915.7,286047004.2,Y
1645583935.5,286047002.6,P
1645583955.4,286047000.2,N
1645583975.2,286047002.3,N
1645583995.1,286047001.6,N
1645583996.0,286047001.6,N
1645584015.8,286047002.6,Y
1645584035.6,286047001.0,P
1645584055.5,286046999.4,N
1645584075.3,286046999.3,N
1645584095.1,286046999.0,N
1645584115.9,286046999.6,N
1645584135.7,286046996.5,Y
1645584155.6,286047001.2,P
1645584175.4,286046998.6,N
1645584195.2,286047000.9,N
1645584215.1,286047001.1,N
1645584216.0,286047001.1,N
1645584235.8,286047000.4,N
1645584255.7,286046999.8,N
1645584275.5,286046999.7,N
1645584295.3,286047002.6,Y
1645584315.2,286047004.4,P
1645584335.0,286047002.3,N
1645584335.9,286047002.3,N
1645584355.7,286047000.1,N
1645584375.6,286047001.1,N
1645584395.4,286047000.7,N
1645584415.3,286046998.5,N
1645584435.1,286046998.8,N
1645584455.8,286047001.2,N
1645584475.7,286047000.7,N
1645584495.5,286046999.6,N
1645584515.3,286046999.5,N
1645584535.2,286046999.6,N
1645584555.0,286046999.3,N
1645584555.9,286046999.3,N
1645584575.8,286046998.9,N
1645584595.6,286046997.0,N
1645584615.4,286046996.8,N
1645584635.3,286046997.7,N
1645584655.1,286046996.5,N
1645584675.8,286046998.0,N
1645584695.7,286046997.4,N
1645584715.5,286046998.0,N
1645584735.4,286046999.5,N
1645584755.2,286046997.1,N
1645584775.0,286046998.0,N
1645584775.9,286046998.0,N
1645584795.8,286046997.9,N
1645584815.6,286046995.0,N
1645584835.4,286046994.9,N
1645584855.3,286046997.3,N
1645584875.1,286046997.0,N
1645584895.9,286046997.5,N
1645584915.7,286046995.0,Y
1645584935.6,286046999.6,P
1645584955.4,286046997.4,P
1645584975.2,286046994.9,P
1645584995.1,286046993.7,Y
1645584996.0,286046993.7,P
1645585015.8,286046996.6,N
1645585035.7,286046998.4,N
1645585055.5,286046998.8,N
1645585075.3,286046998.4,N
1645585095.2,286047000.8,N
1645585115.0,286046999.0,N
1645585115.9,286046999.0,N
1645585135.8,286046998.4,N
1645585155.6,286046996.9,N
1645585175.4,286046999.6,N
1645585195.3,286046999.1,N
